COSMOS 374 DEB

Satellite information

Favourite Embed

Satellite Type and Status

DEBRISIN ORBIT

Key statistics

Satellite COSMOS 374 DEB at a glance.

Uptime

20043

Days in orbit

Revolutions

≈ 12.7

Per day

Orbit

MEO

Medium Earth Orbit

Inclination

63.0

Latest

Satellite identification and parameters

Extended collection of information and parameters for COSMOS 374 DEB.

Object identification

Identified? True

Debris? True

Object name: COSMOS 374 DEB

International designator: 1970-089T

Object number (NORAD): 4823

Object ID (CCSDS): 4823

Country: COMMONWEALTH OF INDEPENDENT STATES (CIS)

Current information (Y/N): Y

RCS size: SMALL

Orbital parameters

Period: 113.745 minutes

Inclination: 63.0248 deg

SMA: 7776.448 km

Apoapsis: 2115.301 km

Periapsis: 681.325 km

RAAN: 178.0671 deg

Eccentricy: 0.09219992

Argument of periapsis: 1.8954 deg

Mean anomaly: 358.5156 deg

Mean motion: 12.65991586 rev/day

Mean motion (dot): 0.00001265 rev/day2

B* drag term: 0.0012673754 1/REarth

Two-line elements (TLE)

Creation date: Sept. 7, 2025, 3:09 a.m.

Reference frame: TEME

Reference center: EARTH

Epoch: Sept. 6, 2025, 10:19 p.m. UTC

TLE line 0: 0 COSMOS 374 DEB

TLE line 1: 1 04823U 70089T 25249.93003165 .00001265 00000-0 12674-2 0 9996

TLE line 2: 2 04823 63.0248 178.0671 0921999 1.8954 358.5156 12.65991586500750

Live tracking on map

Real-time ground track for satellite COSMOS 374 DEB.

In-orbit conjunctions

A list of the most updated potential collisions computed for object COSMOS 374 DEB.

Target Orbit TCA Probability of collision Miss distance Type
COSMOS 590 LEO 2025-05-06 11:37:00 0.0001551445 978.0 (m) PAYLOAD
CZ-4 DEB SSO 2025-02-17 09:59:00 0.001288744 52.0 (m) DEBRIS

Associated space launch

The I2P satellites were the first soviet coorbital ASAT system.

COSMOS 374 DEB was lifted into orbit during the mission ‘Tsiklon-2 | I2P 4’, on board a Tsiklon-2 space rocket.

The launch took place on Oct. 23, 1970, 4:42 a.m. from 90/20.

For more information about the launch, click the button.

Launch to space Tsiklon-2 | I2P 4
Tsiklon-2 | I2P 4

Agency: N/A

Status: Launch Successful

Launch date: Oct. 23, 1970, 4:42 a.m. UTC

Rocket: Tsiklon-2

Launch pad: 90/20

Location: Baikonur Cosmodrome, Republic of Kazakhstan

...

Latest news about this satellite

There are no fresh news available about this satellite. Check back as we update our databases every day.


Newsletter sign-up

Weekly statistics, charts and insights to help you stay on top of the space industry.